COSMOS 1275 DEB

Satellite information

Favourite Embed

Satellite Type and Status

DEBRISIN ORBIT

Key statistics

Satellite COSMOS 1275 DEB at a glance.

Uptime

16263

Days in orbit

Revolutions

≈ 14.1

Per day

Orbit

LEO

Low Earth Orbit

Inclination

82.8

Latest

Satellite identification and parameters

Extended collection of information and parameters for COSMOS 1275 DEB.

Object identification

Identified? True

Debris? True

Object name: COSMOS 1275 DEB

International designator: 1981-053PT

Object number (NORAD): 42107

Object ID (CCSDS): 42107

Country: COMMONWEALTH OF INDEPENDENT STATES (CIS)

Current information (Y/N): Y

RCS size: SMALL

Orbital parameters

Period: 102.116 minutes

Inclination: 82.8052 deg

SMA: 7236.974 km

Apoapsis: 890.219 km

Periapsis: 827.459 km

RAAN: 269.1022 deg

Eccentricy: 0.00433606

Argument of periapsis: 232.115 deg

Mean anomaly: 127.61 deg

Mean motion: 14.10156139 rev/day

Mean motion (dot): 0.0000355 rev/day2

B* drag term: 0.0019813809 1/REarth

Two-line elements (TLE)

Creation date: Dec. 7, 2025, 5:20 p.m.

Reference frame: TEME

Reference center: EARTH

Epoch: Dec. 7, 2025, 1:44 a.m. UTC

TLE line 0: 0 COSMOS 1275 DEB

TLE line 1: 1 42107U 81053PT 25341.07252232 .00003550 00000-0 19814-2 0 9997

TLE line 2: 2 42107 82.8052 269.1022 0043361 232.1150 127.6100 14.10156139615767

Live tracking on map

Real-time ground track for satellite COSMOS 1275 DEB.

In-orbit conjunctions

A list of the most updated potential collisions computed for object COSMOS 1275 DEB.

Target Orbit TCA Probability of collision Miss distance Type
COSMOS 2251 DEB LEO 2025-05-26 23:09:08 0.0002006826 158.0 (m) DEBRIS
DODECAPOLE 2 SSO 2024-11-10 01:53:30 0.0002882508 662.0 (m) PAYLOAD

Associated space launch

Navigation satellite providing location information for the Tsiklon-B navigation system

COSMOS 1275 DEB was lifted into orbit during the mission ‘Kosmos-3M | Parus 27’, on board a Kosmos-3M space rocket.

The launch took place on June 4, 1981, 3:41 p.m. from 132/2.

For more information about the launch, click the button.

Launch to space Kosmos-3M | Parus 27
Kosmos-3M | Parus 27

Agency: N/A

Status: Launch Successful

Launch date: June 4, 1981, 3:41 p.m. UTC

Rocket: Kosmos-3M

Launch pad: 132/2

Location: Plesetsk Cosmodrome, Russian Federation

...

Latest news about this satellite

There are no fresh news available about this satellite. Check back as we update our databases every day.


Newsletter sign-up

Weekly statistics, charts and insights to help you stay on top of the space industry.